Wetbulb
39.02 38.57 38.39 39.04 39.52 39.24 38.98 37.82 34.53 31.28 33.56 37.47 36.99 40.60 41.11 41.93 42.05 42.54 42.50 41.76 42.11 42.16 41.65 41.64 42.15 44.10 44.81 45.17 45.83 49.06 50.82 51.57 51.51 52.25 52.87 54.37 55.77 56.99
39.60 39.26 39.16 39.67 39.49 39.30 38.44 37.92 36.76 33.79 30.73 35.70 36.90 38.77 39.99 39.70 40.52 41.19 41.26 42.05 40.65 40.59 39.88 40.86 42.77 42.91 42.57 43.05 43.41 44.70 45.89 50.26 50.41 50.50 51.18 50.56 53.22 55.87
39.12 38.31 37.73 38.12 37.02 37.09 37.30 36.75 35.94 35.54 32.25 34.79 37.24 38.59 38.19 38.36 38.95 40.09 40.50 40.35 40.52 39.65 39.95 41.14 40.86 40.63 40.68 40.93 41.14 42.69 43.63 44.33 48.09 48.46 49.91 49.99 50.80 53.30
36.07 36.14 35.57 35.59 35.59 36.16 35.70 34.90 35.04 35.56 33.66 31.49 34.48 35.47 36.05 37.41 37.79 37.72 37.88 38.63 39.33 39.04 39.87 39.35 39.21 38.95 39.26 39.38 39.72 40.67 41.72 41.94 43.20 45.45 45.89 47.55 48.42 48.36
34.76 34.06 33.79 33.82 32.79 33.22 33.17 32.63 33.19 33.20 33.41 31.76 31.32 34.22 34.68 35.65 35.21 36.23 36.45 37.46 37.88 38.17 37.46 37.68 38.24 38.78 38.86 39.29 40.01 40.01 41.00 40.68 40.29 42.13 42.26 42.94 43.84 45.06
33.69 33.13 32.60 32.12 31.67 31.28 31.04 31.22 31.43 31.13 31.45 30.69 30.55 31.31 32.38 34.11 34.02 32.57 32.76 35.77 35.38 36.75 36.78 36.44 37.11 37.89 38.78 38.67 38.88 39.76 40.52 41.00 40.44 40.63 40.71 39.66 39.39 41.23
32.64 32.54 32.60 32.11 31.44 31.12 30.94 31.21 30.86 29.52 28.66 27.67 27.46 29.15 29.48 29.68 29.17 31.53 31.33 33.22 34.55 35.82 35.20 36.05 37.13 38.14 38.58 38.39 38.61 38.87 39.85 41.02 40.93 40.43 41.25 40.38 39.34 39.57
29.49 30.43 30.97 30.68 30.77 30.03 29.99 30.11 29.84 28.17 27.71 28.10 27.93 27.52 28.47 30.06 31.02 30.53 30.62 29.30 28.72 36.14 33.84 33.53 36.21 35.77 37.38 38.84 37.65 38.42 39.16 39.76 40.07 40.28 41.56 40.48 39.55 38.80
29.68 29.51 29.36 30.08 30.32 30.56 29.62 29.12 29.30 29.70 29.06 29.07 27.29 27.94 28.10 29.98 30.62 29.96 30.02 30.11 30.06 33.40 33.16 31.19 34.84 33.54 37.08 36.26 36.58 37.33 37.54 38.35 39.29 40.23 40.46 39.45 38.68 38.42
29.51 29.60 29.20 29.07 28.92 28.25 28.40 28.90 29.85 30.31 30.64 30.88 30.43 30.86 31.37 32.17 31.78 31.15 30.98 30.97 32.39 32.75 33.35 27.85 33.62 32.92 35.66 36.65 35.64 35.67 36.60 37.59 38.26 39.21 39.67 39.36 38.41 37.75
29.18 28.78 28.73 28.22 29.23 30.18 29.42 29.23 29.34 30.20 31.87 32.13 32.13 32.18 32.29 32.13 32.38 32.02 30.05 28.63 28.47 29.82 33.51 29.79 31.27 31.41 33.41 35.11 37.58 35.70 36.10 36.87 37.11 37.82 38.74 38.67 38.18 37.33
28.90 29.59 29.30 29.29 28.95 29.36 30.29 28.64 27.04 27.98 28.72 29.41 30.05 31.05 32.26 32.95 31.96 32.82 32.38 28.83 28.52 27.59 32.36 29.60 29.86 30.89 28.79 35.49 36.35 37.59 37.69 35.32 35.89 36.64 38.03 37.70 37.21 38.55
27.39 28.03 29.77 29.43 29.97 29.74 27.78 27.81 27.46 28.72 28.45 28.84 29.14 29.97 31.16 32.08 32.44 33.51 32.99 32.26 29.91 29.31 32.39 31.35 30.30 30.87 30.03 30.64 34.55 36.12 37.12 35.91 37.10 37.12 35.72 36.24 36.01 37.08
27.16 28.75 30.17 27.58 26.78 26.62 26.58 26.59 26.89 27.41 29.06 28.95 28.87 28.71 29.31 30.33 31.53 32.29 33.22 33.52 34.23 32.42 33.17 32.54 30.66 30.15 29.89 29.51 29.24 34.58 35.97 35.75 35.99 34.94 34.19 34.15 33.28 34.12
28.90 28.09 26.72 25.13 24.48 25.21 25.22 25.58 25.82 27.10 27.13 27.57 28.40 29.40 30.26 31.14 32.37 32.37 33.36 33.31 33.62 33.44 33.30 33.60 32.25 31.69 31.37 30.21 29.50 31.32 32.46 33.08 33.68 33.82 35.84 36.06 36.75 36.61
26.57 27.34 24.97 22.93 23.15 23.55 24.90 25.91 26.40 26.25 25.73 26.57 27.95 30.06 31.39 30.58 30.63 31.91 31.01 31.14 30.33 30.52 32.94 33.11 32.82 32.69 31.64 31.43 31.01 30.16 33.02 31.92 34.12 34.59 35.09 35.32 35.45 35.12
25.45 24.22 22.26 21.45 21.96 22.53 23.24 23.73 25.29 25.62 25.44 26.13 27.34 28.62 29.78 30.32 29.93 30.77 30.75 30.58 29.27 28.99 29.80 32.16 32.40 32.88 33.41 32.75 30.32 31.27 31.89 31.95 33.39 34.13 31.34 33.73 35.48 35.46
22.13 19.88 19.25 19.63 19.53 20.25 20.86 21.52 23.05 23.48 24.21 24.57 26.08 27.29 28.27 28.92 28.69 30.12 29.76 29.19 28.74 29.40 29.79 31.22 31.66 31.00 31.20 31.92 32.97 30.74 31.24 31.31 32.13 32.21 31.81 31.16 33.32 34.85
18.77 18.25 17.71 17.71 18.35 19.53 20.02 20.23 20.34 22.46 23.74 23.58 24.18 24.87 26.60 29.05 28.65 28.94 29.38 29.51 28.79 29.66 30.95 32.47 31.64 30.17 27.61 25.83 29.20 28.39 30.06 31.47 31.77 30.18 30.98 30.42 31.63 32.85
17.08 16.77 16.46 16.47 17.19 17.69 18.49 18.96 20.25 21.74 22.58 22.29 22.82 23.42 24.61 26.12 27.19 27.80 28.18 28.53 29.30 29.45 29.29 30.04 30.28 30.27 28.97 28.77 27.82 27.70 27.91 30.72 30.10 30.05 29.15 29.81 29.57 26.59
14.94 15.38 15.91 15.94 15.99 16.74 17.63 18.23 19.54 20.39 20.99 21.75 22.19 22.24 23.13 24.18 24.37 25.26 26.43 25.88 27.02 28.62 27.08 26.94 26.70 26.29 29.22 29.35 26.16 24.82 25.85 28.17 29.04 29.96 28.44 28.34 28.17 28.47
14.15 14.07 14.59 15.12 15.57 16.07 17.25 17.39 18.96 19.91 20.02 21.02 21.44 22.33 22.44 23.35 23.40 23.65 24.68 25.35 25.52 25.70 25.01 26.39 27.09 27.89 27.84 26.63 23.79 22.16 23.04 24.84 25.96 26.07 26.37 26.39 27.96 26.59
13.13 13.43 13.86 14.43 14.79 15.55 15.98 16.76 17.02 18.28 18.43 18.98 20.56 21.42 21.68 21.73 23.21 24.02 24.60 24.63 24.73 24.98 24.89 24.96 24.76 24.43 23.79 24.00 23.55 22.86 22.00 23.24 24.99 25.29 25.58 25.78 25.49 26.22
MSLP
1018.77 1018.72 1018.69 1018.72 1018.58 1018.60 1018.45 1018.33 1017.94 1016.77 1015.76 1015.67 1015.76 1015.88 1015.99 1015.78 1016.03 1016.27 1015.99 1015.87 1016.14 1015.98 1015.91 1015.82 1015.79 1015.51 1015.23 1014.97 1014.77 1014.33 1013.93 1013.48 1013.29 1012.88 1012.74 1012.13 1012.94 1012.06
1018.12 1018.14 1018.06 1017.89 1017.82 1017.73 1017.61 1017.46 1017.19 1016.79 1015.85 1015.88 1015.62 1015.61 1015.66 1015.68 1015.59 1015.60 1015.36 1015.47 1015.43 1015.35 1015.30 1015.20 1015.21 1015.14 1014.86 1014.65 1014.36 1013.99 1013.66 1013.31 1012.93 1012.86 1012.55 1011.88 1012.16 1011.67
1017.73 1017.71 1017.52 1017.43 1017.22 1017.04 1016.91 1016.73 1016.46 1016.36 1015.79 1015.18 1015.38 1015.42 1015.49 1015.28 1014.99 1014.88 1014.80 1014.69 1014.45 1014.50 1014.56 1014.57 1014.57 1014.43 1014.32 1014.28 1013.82 1013.53 1013.17 1013.05 1012.67 1012.38 1012.45 1011.76 1011.29 1011.23
1017.34 1017.30 1017.08 1016.97 1016.84 1016.77 1016.60 1016.33 1016.16 1016.05 1015.85 1015.21 1014.89 1014.83 1014.72 1014.64 1014.54 1014.44 1014.21 1013.85 1013.61 1013.56 1013.82 1013.82 1013.72 1013.60 1013.48 1013.40 1013.19 1012.93 1012.58 1012.53 1012.31 1012.04 1011.77 1011.61 1011.23 1010.80
1017.18 1017.11 1017.00 1016.98 1016.75 1016.56 1016.38 1016.06 1015.82 1015.56 1015.34 1014.92 1014.18 1014.12 1013.98 1013.94 1013.71 1013.65 1013.50 1013.19 1012.91 1012.84 1012.98 1012.86 1012.68 1012.60 1012.56 1012.45 1012.27 1012.22 1012.03 1011.81 1011.84 1011.69 1011.34 1011.39 1011.15 1011.20
1017.00 1016.86 1016.75 1016.64 1016.40 1016.18 1015.92 1015.63 1015.33 1015.03 1014.75 1014.38 1013.83 1013.39 1013.40 1013.29 1013.19 1012.89 1012.47 1012.43 1012.22 1012.13 1011.99 1011.93 1011.83 1011.68 1011.61 1011.54 1011.52 1011.41 1011.31 1011.20 1011.07 1011.10 1010.98 1010.78 1010.88 1010.74
1016.54 1016.39 1016.20 1016.07 1016.01 1015.79 1015.46 1014.89 1014.60 1014.44 1014.30 1014.01 1013.52 1012.93 1012.54 1012.54 1012.49 1012.34 1011.84 1011.61 1011.37 1011.51 1011.32 1011.14 1011.01 1010.74 1010.57 1010.60 1010.57 1010.52 1010.42 1010.38 1010.44 1010.42 1010.29 1009.96 1010.26 1010.58
1016.28 1015.96 1015.67 1015.44 1015.15 1015.02 1014.87 1014.69 1014.54 1014.13 1013.68 1013.28 1012.70 1012.17 1011.75 1011.62 1011.61 1011.53 1011.45 1011.20 1010.61 1010.80 1010.73 1010.46 1010.49 1009.99 1009.81 1009.64 1009.65 1009.85 1009.92 1009.79 1009.78 1009.85 1009.77 1009.69 1010.00 1010.51
1015.92 1015.43 1014.95 1014.64 1014.52 1014.18 1013.97 1013.91 1013.69 1013.42 1013.21 1012.86 1012.15 1011.54 1011.11 1010.99 1010.84 1010.73 1010.61 1010.36 1010.00 1009.91 1010.07 1009.77 1009.96 1009.61 1009.36 1009.41 1009.42 1009.39 1009.29 1009.26 1009.15 1009.10 1009.29 1009.56 1009.62 1009.92
1015.45 1014.93 1014.53 1014.17 1013.98 1013.83 1013.38 1012.94 1012.37 1011.95 1011.71 1011.42 1010.99 1010.55 1010.30 1010.23 1010.04 1009.92 1009.76 1009.61 1009.49 1009.43 1009.57 1009.17 1009.33 1008.94 1008.91 1008.68 1008.69 1008.68 1008.60 1008.57 1008.56 1008.46 1008.50 1008.84 1009.07 1009.31
1014.84 1014.44 1014.03 1013.61 1013.24 1013.04 1012.61 1011.95 1011.24 1010.52 1010.07 1009.95 1009.76 1009.53 1009.42 1009.39 1009.40 1009.32 1008.94 1008.85 1008.33 1008.25 1008.47 1008.76 1008.70 1008.36 1008.16 1007.90 1007.80 1007.73 1007.79 1007.85 1007.90 1007.96 1007.95 1008.08 1008.46 1009.06
1014.04 1013.47 1013.11 1012.88 1012.61 1012.27 1011.78 1011.27 1010.47 1009.68 1009.20 1008.87 1008.56 1008.25 1008.23 1008.02 1007.98 1008.10 1007.94 1007.67 1007.55 1007.22 1007.14 1007.70 1007.76 1007.67 1007.21 1006.64 1006.73 1006.77 1006.90 1007.05 1007.24 1007.41 1007.62 1007.81 1008.07 1008.23
1013.47 1012.79 1012.42 1012.23 1011.87 1011.54 1011.24 1010.69 1010.05 1009.48 1008.69 1008.15 1007.63 1007.22 1006.96 1006.77 1006.59 1006.63 1006.74 1006.82 1006.66 1006.36 1006.33 1007.12 1006.94 1006.88 1007.01 1006.48 1006.23 1006.50 1006.50 1006.68 1006.71 1006.99 1007.41 1007.62 1007.87 1008.01
1013.25 1012.57 1012.12 1012.04 1011.59 1011.13 1010.77 1010.32 1009.63 1008.91 1008.03 1007.38 1006.87 1006.39 1006.02 1005.66 1005.52 1005.61 1005.71 1005.76 1005.85 1005.83 1005.97 1006.61 1006.43 1006.36 1006.43 1006.21 1005.85 1006.05 1006.34 1006.54 1006.63 1006.93 1007.28 1007.52 1007.65 1007.82
1013.02 1012.65 1012.34 1011.98 1011.41 1010.76 1010.40 1009.86 1009.22 1008.56 1007.85 1007.09 1006.35 1005.82 1005.37 1005.03 1004.90 1004.91 1005.05 1005.15 1005.30 1005.42 1005.58 1005.94 1005.96 1005.86 1006.03 1005.89 1005.60 1005.66 1005.93 1006.28 1006.53 1006.72 1006.93 1006.91 1006.84 1007.18
1013.00 1012.51 1012.41 1012.04 1011.42 1010.87 1010.07 1009.62 1009.22 1008.70 1008.09 1007.25 1006.48 1005.80 1005.20 1004.74 1004.40 1004.26 1004.31 1004.39 1004.60 1004.57 1004.91 1005.20 1005.44 1005.63 1005.44 1005.46 1005.37 1005.41 1005.68 1005.73 1006.05 1006.34 1006.52 1006.67 1006.77 1006.90
1013.09 1012.81 1012.42 1011.92 1011.28 1010.72 1010.27 1009.79 1009.15 1008.58 1007.95 1007.35 1006.57 1005.75 1005.05 1004.65 1004.36 1004.24 1004.13 1004.07 1004.07 1003.87 1004.07 1004.41 1004.73 1004.95 1005.04 1005.12 1004.99 1004.90 1004.87 1005.16 1005.51 1005.62 1006.26 1005.95 1006.04 1006.35
1013.48 1013.17 1012.83 1012.42 1011.94 1011.39 1010.82 1010.12 1009.48 1008.91 1008.36 1007.68 1006.96 1006.19 1005.42 1004.81 1004.40 1004.21 1004.17 1003.96 1003.72 1003.55 1003.59 1003.79 1004.06 1004.31 1004.46 1004.58 1004.77 1004.47 1004.46 1004.60 1004.94 1005.39 1005.71 1005.58 1005.34 1005.73
1014.07 1013.79 1013.48 1013.08 1012.62 1012.06 1011.41 1010.75 1010.14 1009.57 1008.95 1008.21 1007.57 1006.88 1006.11 1005.21 1004.69 1004.26 1003.95 1003.73 1003.60 1003.41 1003.29 1003.45 1003.57 1003.61 1003.52 1003.62 1004.35 1004.87 1004.59 1004.37 1004.58 1004.96 1005.20 1005.31 1005.16 1005.52
1014.85 1014.54 1014.16 1013.75 1013.29 1012.68 1012.05 1011.43 1010.75 1010.06 1009.29 1008.72 1008.10 1007.49 1006.77 1005.95 1005.15 1004.68 1004.32 1004.03 1003.74 1003.53 1003.43 1003.49 1003.45 1003.27 1003.14 1003.22 1003.81 1004.82 1004.84 1004.44 1004.51 1004.53 1004.93 1005.35 1005.67 1006.01
1015.58 1015.21 1014.85 1014.38 1013.87 1013.31 1012.72 1012.13 1011.40 1010.70 1010.02 1009.29 1008.68 1008.07 1007.45 1006.75 1006.04 1005.54 1005.03 1004.69 1004.29 1003.92 1003.82 1003.90 1004.17 1004.23 1003.87 1003.92 1004.18 1004.80 1005.26 1004.96 1004.91 1004.78 1004.99 1005.08 1005.34 1005.42
1016.25 1015.85 1015.48 1015.03 1014.50 1013.95 1013.30 1012.75 1011.87 1011.20 1010.55 1009.87 1009.24 1008.60 1008.01 1007.43 1006.84 1006.29 1005.72 1005.08 1004.81 1004.67 1004.64 1004.63 1004.59 1004.34 1004.20 1003.98 1004.38 1005.01 1005.43 1005.70 1005.74 1005.69 1005.76 1005.72 1005.61 1005.37
1016.82 1016.41 1016.00 1015.59 1015.11 1014.52 1013.92 1013.31 1012.64 1012.00 1011.39 1010.75 1009.93 1009.25 1008.64 1008.04 1007.51 1006.96 1006.37 1005.86 1005.49 1005.22 1005.13 1004.94 1004.95 1004.91 1004.84 1004.73 1004.92 1005.26 1005.62 1005.78 1005.79 1005.77 1006.08 1006.17 1006.01 1005.99
Wind_Speed
2 3 3 4 5 6 7 8 8 11 12 11 11 8 8 7 8 11 11 11 10 10 11 13 15 14 13 14 16 15 16 16 16 13 10 6 17 24
5 8 9 7 8 8 8 8 9 10 14 10 11 11 11 10 12 12 13 12 15 12 13 14 11 10 11 13 14 16 15 15 11 15 12 7 10 15
5 6 8 9 7 7 7 9 9 10 13 12 11 11 14 14 13 13 13 13 12 12 14 12 12 12 13 14 15 16 15 16 15 12 16 12 8 7
7 8 10 7 10 9 7 10 10 11 11 16 14 11 15 14 15 15 13 13 13 14 13 15 17 18 17 16 16 16 14 15 16 14 11 13 10 7
9 9 9 8 9 9 10 11 11 11 12 13 14 12 12 12 14 14 15 15 14 19 20 21 21 21 20 19 15 15 15 15 16 16 12 10 9 9
10 10 11 11 12 12 12 13 12 12 12 12 12 12 11 12 11 12 12 11 12 12 14 16 16 17 17 18 18 17 17 16 17 18 16 10 8 8
12 13 12 14 18 17 11 13 13 12 10 10 11 12 12 10 11 11 12 11 12 10 11 11 11 11 11 16 18 18 18 18 17 20 18 9 8 8
13 13 13 16 15 17 18 19 16 13 13 11 12 13 16 13 11 10 10 11 12 9 11 11 10 11 11 10 12 10 13 17 19 17 17 11 9 10
13 13 13 11 14 13 15 17 17 20 18 16 16 16 16 15 14 14 14 13 13 11 10 11 9 11 9 7 11 13 11 12 15 16 15 13 11 9
13 14 13 14 13 13 13 14 15 15 15 13 17 18 17 16 16 14 15 15 13 12 11 11 9 10 9 10 15 18 17 12 11 12 11 11 9 8
12 11 13 13 17 19 15 15 16 16 15 23 25 26 24 23 21 11 11 11 11 12 9 9 9 10 10 10 9 16 17 15 12 10 10 9 8 7
12 12 14 15 18 20 13 13 15 15 14 15 14 16 20 19 24 17 13 12 11 10 10 10 10 8 7 6 7 6 7 14 12 10 12 10 8 6
11 10 9 14 18 13 15 12 13 15 15 13 12 11 10 12 11 11 13 12 12 12 9 7 7 8 6 7 4 4 3 5 5 3 8 11 12 10
11 9 7 14 16 15 11 14 16 12 8 8 7 8 8 9 10 11 12 12 12 14 11 9 9 9 8 8 8 3 2 3 2 3 4 6 9 10
8 11 11 14 14 9 11 14 11 7 7 7 6 7 7 8 9 8 10 12 11 12 10 9 9 10 9 8 7 5 5 3 3 3 4 4 3 3
10 5 7 8 7 8 8 8 7 7 7 6 7 7 6 4 4 4 6 6 8 7 9 10 10 10 8 9 9 8 6 4 3 4 4 3 3 4
7 4 5 7 8 8 8 8 7 8 8 8 7 7 6 5 3 3 4 4 6 5 6 6 8 8 8 8 7 9 9 7 6 6 4 6 5 5
4 5 6 6 8 8 9 8 8 10 9 8 7 7 6 6 4 2 3 4 5 5 5 5 5 6 5 7 9 9 7 7 7 6 7 6 6 4
6 6 6 7 7 8 8 8 8 9 10 8 7 8 7 6 6 5 3 4 5 5 5 5 6 7 8 8 4 5 7 7 6 6 6 6 4 2
6 6 7 7 7 7 8 8 8 8 9 8 8 8 7 7 6 6 5 4 3 1 1 1 2 3 5 4 3 2 10 3 5 5 5 3 1 2
7 7 7 7 7 7 7 8 8 8 9 8 8 8 7 7 6 6 6 6 5 3 2 2 4 4 2 4 4 3 6 13 5 1 4 3 2 2
7 7 7 7 8 8 8 8 8 9 9 9 9 8 7 6 6 6 5 4 4 4 3 3 3 2 1 1 4 5 3 4 11 17 16 6 2 2
7 7 7 7 7 8 8 8 8 8 9 9 8 8 7 7 6 5 5 4 4 3 3 3 4 4 4 3 4 4 6 4 3 4 7 14 2 2
Wind_Direction
198 221 226 239 227 237 243 245 248 282 280 283 283 281 280 281 272 269 272 273 263 274 286 293 294 295 304 311 315 307 300 261 276 280 269 259 282 340
223 225 225 229 233 233 239 245 249 262 274 274 273 278 277 277 275 268 269 267 268 271 277 279 272 283 298 302 306 306 305 300 269 281 270 246 265 285
252 246 249 248 252 253 257 263 265 265 268 278 274 271 270 270 272 272 269 269 269 256 259 256 267 276 281 284 290 289 292 291 284 275 282 275 265 276
286 280 279 283 279 276 273 272 271 270 268 271 273 271 266 269 271 267 264 265 265 256 239 253 265 271 272 272 271 270 271 281 277 268 268 286 288 306
293 289 288 283 281 279 275 274 271 269 268 269 272 272 271 270 269 265 262 260 263 263 262 263 261 263 265 263 258 264 255 260 276 270 255 262 281 292
293 290 289 286 285 285 280 278 277 274 269 266 268 271 267 266 265 269 265 256 260 263 262 263 273 269 265 266 265 265 264 250 255 262 249 226 250 277
301 297 292 292 289 284 282 279 275 268 264 265 266 271 267 259 253 259 265 270 267 267 269 268 269 264 261 251 256 260 260 252 246 253 250 223 232 265
299 296 294 291 283 281 276 272 273 277 273 269 265 264 267 266 260 257 258 260 267 249 256 263 264 263 261 254 258 267 273 265 257 250 244 236 216 228
300 296 295 291 287 287 287 284 276 269 260 263 266 264 270 267 266 263 255 252 257 261 254 266 267 268 266 260 266 257 265 265 259 250 220 222 227 214
294 294 294 293 291 285 280 274 271 268 261 251 251 258 262 265 265 262 262 261 259 259 259 261 265 259 259 262 252 257 259 248 260 256 236 209 211 238
298 293 291 288 285 284 284 281 285 282 267 255 257 260 261 258 254 260 246 247 249 248 235 244 256 265 262 260 254 246 243 241 239 247 240 230 229 232
302 297 289 286 286 281 284 295 289 287 290 285 276 261 251 253 253 245 245 247 245 254 242 236 246 250 260 224 246 241 245 236 231 235 231 225 227 242
308 308 302 302 300 306 310 297 292 299 289 278 272 269 259 254 250 243 236 237 245 244 244 197 240 245 235 272 261 259 243 214 192 200 224 223 221 221
306 303 314 332 321 317 313 316 317 308 292 286 275 272 269 260 250 244 240 236 237 250 257 216 237 242 243 255 258 198 225 216 177 170 203 205 209 225
315 318 335 331 326 318 326 334 335 331 323 307 306 304 300 289 274 251 235 238 236 236 240 227 232 245 238 247 256 247 251 178 180 175 202 210 187 195
326 342 344 332 329 338 345 345 342 339 325 317 312 308 311 311 284 257 246 230 237 234 219 220 221 230 235 227 250 256 226 235 181 207 213 213 223 223
329 346 355 358 1 0 358 351 348 350 350 341 328 325 324 324 323 292 260 246 242 247 227 210 214 224 231 241 230 237 240 227 240 240 213 250 237 227
1 5 4 4 3 358 356 354 360 354 355 346 339 342 344 355 335 269 250 255 258 248 251 223 211 215 214 212 237 252 248 239 220 221 231 237 245 207
19 11 6 3 355 355 359 0 354 350 352 354 348 345 340 350 357 6 347 254 250 257 251 246 235 234 233 235 130 46 258 228 227 217 214 215 240 227
13 7 3 2 353 354 357 355 355 355 1 359 355 350 347 340 350 357 1 7 359 336 242 287 274 263 246 250 146 96 12 241 210 203 181 174 77 63
4 1 359 358 355 351 354 352 352 357 354 359 359 354 352 345 358 357 349 354 334 359 51 41 14 337 91 119 133 106 50 51 46 139 145 181 205 250
360 356 356 356 355 355 355 357 360 1 1 0 359 356 357 353 357 354 2 8 26 40 54 39 18 353 19 286 119 123 108 77 69 68 47 18 334 262
357 356 355 355 354 355 358 359 1 359 1 355 354 357 358 355 356 3 9 19 18 31 23 41 38 42 51 102 120 119 116 104 78 87 53 19 35 292